Location: Audinghen
(50.8518°N, 1.6129°E)
Time: 08:20:35
(UTC+00:00)

USA 229 DEB - Pass Details

Date: 07 August 2020
Orbit: 971 x 1241 km, 63.4° (Epoch: 22 September)

Event Time Altitude Azimuth Distance (km) Brightness Sun altitude
Exits shadow 02:48:40 13° 193° (SSW) 2,519 5.1 -13.3°
Maximum altitude 02:54:09 49° 122° (ESE) 1,300 4.2 -12.7°
Drops below altitude 10° 03:00:42 10° 50° (NE) 2,922 7.5 -12.0°
Sets 03:03:31 0° 45° (NE) 3,923 8.9 -11.7°
